COSMOS 2251 DEB, 34477

Orbit data source: Space-Track

COSMOS 2251 DEB, 34477 is space debris in LEO originally from a launch on Wed, 16 Jun 1993 UTC launched from the Plesetsk Missile And Space Complex (PKMTR). The debris from Iridium 33, an American commercial communications satellite, has been tracked extensively since its accidental collision with the defunct Russian satellite Cosmos 2251 in 2009. This event, occurring at high speed in low Earth orbit (LEO), generated thousands of pieces of space debris, significantly increasing the risk of further collisions. The Iridium 33 debris cloud has impacted space traffic management and orbital debris mitigation strategies, making it a subject of ongoing study in space situational awareness.

Loading next visibility...
Identifier
34477, 1993-036TW
Orbit
LEO
Country
Flag of CISCIS
Related business
Manufacturer
Unknown
Mission
Spacecraft
Bus & Motor
Unknown
Mass
Unknown
Launch date (UTC)
1993-06-16 (33 years ago)
Launch vehicle
Unknown
Launch site
Plesetsk Missile And Space Complex (PKMTR)
Object type
Payload
Rocket body
Debris
Shape & HBR
Unknown shape, 0.1 m
Radar Cross Section
Small (<0.1 m²)

Expand to show TLE details & history
Last TLE update: 13 hours ago

TLE from 13 hours ago
0 COSMOS 2251 DEB
1 34477U 93036TW  26067.96282847  .00004011  00000-0  85607-3 0  9998
2 34477  73.9761 265.1084 0074251  71.1856  79.2550 14.57481490898818
Epoch: 2026-03-08T23:06Z
TLE epoch observation values (Epoch: 2026-03-08T23:06:28.379Z)
Latitude
27.55719°
Longitude
-76.74509°
Altitude
694.974 km
Speed
7.516 km/s
True Right ascension
05h 06m 08s
True Declination
27° 24' 55"
Sunlit
Object was in daylight at epoch
Visualization orbit readout
Latitude
Unknown
Longitude
Unknown
Altitude
Unknown
Speed
Unknown
Apparent Right ascension
Unknown
Apparent Declination
Unknown
Sunlit
N/A
Visualization observer readout
Local Sidereal Time
15:52:12
Azimuth
Unknown
Elevation
Unknown
Doppler factor
Unknown
Orbital elements
Apogee altitude
751.471 km
Perigee altitude
646.375 km
Semi-major axis
7,077.06 km
Eccentricity
0.00743
Inclination
73.9761°
RAAN
265.1084°
Arg. of periapsis
71.1856°
True anomaly
80.09235°
Mean anomaly
79.255°
Eccentric anomaly
79.67354°
Mean motion
3.64556 °/min
Orbital period
98.75 mins
BSTAR
0.00085607
Loading maneuver chart data...
Computing Atmospheric mass density...

Documentation

Showing up to 5 results
|